Time,TemperatureF,DewpointF,PressureIn,WindDirection,WindDirectionDegrees,WindSpeedMPH,WindSpeedGustMPH,Humidity,HourlyPrecipIn,Conditions,Clouds,dailyrainin,SoftwareType,DateUTC
2013-02-15 00:01:00,50.8,38.2,30.23,ENE,69,0.0,0.0,62,0.00,,,0.00,Wunderground v.1.15,2013-02-15 08:01:00,
2013-02-15 00:07:00,51.1,38.1,30.23,ENE,69,1.0,2.0,61,0.00,,,0.00,Wunderground v.1.15,2013-02-15 08:07:00,
2013-02-15 00:13:00,51.4,38.0,30.23,ENE,69,0.0,0.0,60,0.00,,,0.00,Wunderground v.1.15,2013-02-15 08:13:00,
2013-02-15 00:19:00,51.5,38.1,30.24,ENE,69,0.0,0.0,60,0.00,,,0.00,Wunderground v.1.15,2013-02-15 08:19:00,
2013-02-15 00:25:00,51.5,38.1,30.24,ENE,69,0.0,0.0,60,0.00,,,0.00,Wunderground v.1.15,2013-02-15 08:25:00,
2013-02-15 00:31:00,51.5,38.1,30.24,ENE,69,2.0,2.0,60,0.00,,,0.00,Wunderground v.1.15,2013-02-15 08:31:00,
2013-02-15 00:37:00,51.4,38.4,30.24,ENE,69,2.0,2.0,61,0.00,,,0.00,Wunderground v.1.15,2013-02-15 08:37:00,
2013-02-15 00:43:00,51.2,37.8,30.24,ENE,69,0.0,1.0,60,0.00,,,0.00,Wunderground v.1.15,2013-02-15 08:43:00,
2013-02-15 00:49:00,51.1,37.7,30.24,ENE,69,2.0,2.0,60,0.00,,,0.00,Wunderground v.1.15,2013-02-15 08:49:00,
2013-02-15 00:54:00,51.0,37.6,30.24,ENE,69,1.0,3.0,60,0.00,,,0.00,Wunderground v.1.15,2013-02-15 08:54:00,
2013-02-15 01:00:00,50.9,37.9,30.24,ENE,69,1.0,2.0,61,0.00,,,0.00,Wunderground v.1.15,2013-02-15 09:00:00,
2013-02-15 01:06:00,50.8,37.8,30.24,ENE,69,1.0,2.0,61,0.00,,,0.00,Wunderground v.1.15,2013-02-15 09:06:00,
2013-02-15 01:12:00,50.7,37.3,30.24,ENE,69,2.0,3.0,60,0.00,,,0.00,Wunderground v.1.15,2013-02-15 09:12:00,
2013-02-15 01:18:00,50.7,37.3,30.24,ENE,69,3.0,3.0,60,0.00,,,0.00,Wunderground v.1.15,2013-02-15 09:18:00,
2013-02-15 01:24:00,50.6,37.2,30.24,ENE,69,3.0,3.0,60,0.00,,,0.00,Wunderground v.1.15,2013-02-15 09:24:00,
2013-02-15 01:30:00,50.5,37.1,30.24,ENE,65,4.0,4.0,60,0.00,,,0.00,Wunderground v.1.15,2013-02-15 09:30:00,
2013-02-15 01:35:00,50.5,37.1,30.24,NE,34,3.0,4.0,60,0.00,,,0.00,Wunderground v.1.15,2013-02-15 09:35:00,
2013-02-15 01:41:00,50.5,37.1,30.24,North,5,1.0,3.0,60,0.00,,,0.00,Wunderground v.1.15,2013-02-15 09:41:00,
2013-02-15 01:47:00,50.5,37.1,30.25,North,360,2.0,3.0,60,0.00,,,0.00,Wunderground v.1.15,2013-02-15 09:47:00,
2013-02-15 01:53:00,50.6,37.2,30.25,North,5,1.0,3.0,60,0.00,,,0.00,Wunderground v.1.15,2013-02-15 09:53:00,
2013-02-15 01:58:00,50.7,37.3,30.25,North,351,4.0,4.0,60,0.00,,,0.00,Wunderground v.1.15,2013-02-15 09:58:00,
2013-02-15 02:03:00,50.8,37.4,30.25,North,355,2.0,5.0,60,0.00,,,0.00,Wunderground v.1.15,2013-02-15 10:03:00,
2013-02-15 02:08:00,50.9,37.1,30.25,North,355,2.0,5.0,59,0.00,,,0.00,Wunderground v.1.15,2013-02-15 10:08:00,
2013-02-15 02:13:00,50.9,37.5,30.25,North,355,1.0,3.0,60,0.00,,,0.00,Wunderground v.1.15,2013-02-15 10:13:00,
2013-02-15 02:18:00,50.8,37.4,30.25,North,355,2.0,4.0,60,0.00,,,0.00,Wunderground v.1.15,2013-02-15 10:18:00,
2013-02-15 02:23:00,50.6,37.2,30.25,North,355,3.0,4.0,60,0.00,,,0.00,Wunderground v.1.15,2013-02-15 10:23:00,
2013-02-15 02:28:00,50.4,37.4,30.25,North,355,2.0,5.0,61,0.00,,,0.00,Wunderground v.1.15,2013-02-15 10:28:00,
2013-02-15 02:33:00,50.3,37.4,30.25,North,355,3.0,4.0,61,0.00,,,0.00,Wunderground v.1.15,2013-02-15 10:33:00,
2013-02-15 02:38:00,50.2,37.3,30.25,North,355,2.0,4.0,61,0.00,,,0.00,Wunderground v.1.15,2013-02-15 10:38:00,
2013-02-15 02:43:00,50.1,37.2,30.25,North,355,3.0,3.0,61,0.00,,,0.00,Wunderground v.1.15,2013-02-15 10:43:00,
2013-02-15 02:48:00,49.9,37.4,30.25,North,355,1.0,4.0,62,0.00,,,0.00,Wunderground v.1.15,2013-02-15 10:48:00,
2013-02-15 02:53:00,49.8,37.3,30.24,North,355,1.0,4.0,62,0.00,,,0.00,Wunderground v.1.15,2013-02-15 10:53:00,
2013-02-15 02:59:00,49.7,37.2,30.25,North,355,3.0,5.0,62,0.00,,,0.00,Wunderground v.1.15,2013-02-15 10:59:00,
2013-02-15 03:03:00,49.6,37.1,30.25,North,355,1.0,4.0,62,0.00,,,0.00,Wunderground v.1.15,2013-02-15 11:03:00,
2013-02-15 03:08:00,49.5,37.4,30.25,North,355,0.0,4.0,63,0.00,,,0.00,Wunderground v.1.15,2013-02-15 11:08:00,
2013-02-15 03:13:00,49.4,37.3,30.25,North,355,0.0,2.0,63,0.00,,,0.00,Wunderground v.1.15,2013-02-15 11:13:00,
2013-02-15 03:18:00,49.3,37.6,30.25,North,355,0.0,3.0,64,0.00,,,0.00,Wunderground v.1.15,2013-02-15 11:18:00,
2013-02-15 03:23:00,49.2,37.5,30.25,North,355,1.0,2.0,64,0.00,,,0.00,Wunderground v.1.15,2013-02-15 11:23:00,
2013-02-15 03:28:00,49.1,37.8,30.25,North,355,2.0,2.0,65,0.00,,,0.00,Wunderground v.1.15,2013-02-15 11:28:00,
2013-02-15 03:33:00,48.9,37.6,30.25,North,355,0.0,3.0,65,0.00,,,0.00,Wunderground v.1.15,2013-02-15 11:33:00,
2013-02-15 03:39:00,48.8,37.9,30.25,North,355,0.0,3.0,66,0.00,,,0.00,Wunderground v.1.15,2013-02-15 11:39:00,
2013-02-15 03:44:00,48.6,38.1,30.25,North,355,0.0,1.0,67,0.00,,,0.00,Wunderground v.1.15,2013-02-15 11:44:00,
2013-02-15 03:49:00,48.5,38.4,30.25,North,355,0.0,2.0,68,0.00,,,0.00,Wunderground v.1.15,2013-02-15 11:49:00,
2013-02-15 03:54:00,48.4,38.3,30.25,North,355,0.0,1.0,68,0.00,,,0.00,Wunderground v.1.15,2013-02-15 11:54:00,
2013-02-15 03:59:00,48.2,38.5,30.25,North,355,2.0,3.0,69,0.00,,,0.00,Wunderground v.1.15,2013-02-15 11:59:00,
2013-02-15 04:04:00,48.0,38.3,30.25,North,355,1.0,4.0,69,0.00,,,0.00,Wunderground v.1.15,2013-02-15 12:04:00,
2013-02-15 04:09:00,47.8,38.5,30.25,North,355,1.0,4.0,70,0.00,,,0.00,Wunderground v.1.15,2013-02-15 12:09:00,
2013-02-15 04:14:00,47.6,38.7,30.25,North,355,2.0,3.0,71,0.00,,,0.00,Wunderground v.1.15,2013-02-15 12:14:00,
2013-02-15 04:19:00,47.4,38.5,30.25,North,355,1.0,3.0,71,0.00,,,0.00,Wunderground v.1.15,2013-02-15 12:19:00,
2013-02-15 04:24:00,47.3,38.4,30.25,North,355,2.0,2.0,71,0.00,,,0.00,Wunderground v.1.15,2013-02-15 12:24:00,
2013-02-15 04:29:00,47.2,38.3,30.25,North,355,1.0,2.0,71,0.00,,,0.00,Wunderground v.1.15,2013-02-15 12:29:00,
2013-02-15 04:34:00,47.0,37.7,30.25,North,355,0.0,3.0,70,0.00,,,0.00,Wunderground v.1.15,2013-02-15 12:34:00,
2013-02-15 04:39:00,46.9,38.0,30.25,North,355,1.0,3.0,71,0.00,,,0.00,Wunderground v.1.15,2013-02-15 12:39:00,
2013-02-15 04:44:00,46.7,37.8,30.25,North,355,2.0,3.0,71,0.00,,,0.00,Wunderground v.1.15,2013-02-15 12:44:00,
2013-02-15 04:49:00,46.7,37.4,30.25,North,355,1.0,3.0,70,0.00,,,0.00,Wunderground v.1.15,2013-02-15 12:49:00,
2013-02-15 04:54:00,46.7,37.4,30.25,North,355,2.0,3.0,70,0.00,,,0.00,Wunderground v.1.15,2013-02-15 12:54:00,
2013-02-15 04:59:00,46.7,37.1,30.25,North,355,1.0,4.0,69,0.00,,,0.00,Wunderground v.1.15,2013-02-15 12:59:00,
2013-02-15 05:04:00,46.6,36.6,30.25,North,355,1.0,3.0,68,0.00,,,0.00,Wunderground v.1.15,2013-02-15 13:04:00,
2013-02-15 05:09:00,46.6,36.6,30.25,North,355,3.0,3.0,68,0.00,,,0.00,Wunderground v.1.15,2013-02-15 13:09:00,
2013-02-15 05:14:00,46.6,36.6,30.25,North,355,0.0,3.0,68,0.00,,,0.00,Wunderground v.1.15,2013-02-15 13:14:00,
2013-02-15 05:19:00,46.5,36.5,30.25,North,355,0.0,3.0,68,0.00,,,0.00,Wunderground v.1.15,2013-02-15 13:19:00,
2013-02-15 05:24:00,46.5,36.5,30.25,North,355,1.0,2.0,68,0.00,,,0.00,Wunderground v.1.15,2013-02-15 13:24:00,
2013-02-15 05:29:00,46.4,36.4,30.25,North,355,2.0,3.0,68,0.00,,,0.00,Wunderground v.1.15,2013-02-15 13:29:00,
2013-02-15 05:34:00,46.4,36.4,30.25,North,355,0.0,2.0,68,0.00,,,0.00,Wunderground v.1.15,2013-02-15 13:34:00,
2013-02-15 05:39:00,46.3,36.3,30.25,North,355,0.0,2.0,68,0.00,,,0.00,Wunderground v.1.15,2013-02-15 13:39:00,
2013-02-15 05:44:00,46.3,36.3,30.25,North,355,0.0,1.0,68,0.00,,,0.00,Wunderground v.1.15,2013-02-15 13:44:00,
2013-02-15 05:49:00,46.2,36.2,30.26,North,355,1.0,2.0,68,0.00,,,0.00,Wunderground v.1.15,2013-02-15 13:49:00,
2013-02-15 05:54:00,46.1,36.1,30.26,North,355,0.0,1.0,68,0.00,,,0.00,Wunderground v.1.15,2013-02-15 13:54:00,
2013-02-15 05:59:00,46.1,36.1,30.25,North,355,1.0,2.0,68,0.00,,,0.00,Wunderground v.1.15,2013-02-15 13:59:00,
2013-02-15 06:04:00,46.2,36.2,30.26,North,355,0.0,1.0,68,0.00,,,0.00,Wunderground v.1.15,2013-02-15 14:04:00,
2013-02-15 06:09:00,46.0,36.0,30.25,North,355,1.0,2.0,68,0.00,,,0.00,Wunderground v.1.15,2013-02-15 14:09:00,
2013-02-15 06:14:00,45.5,35.9,30.25,North,355,1.0,3.0,69,0.00,,,0.00,Wunderground v.1.15,2013-02-15 14:14:00,
2013-02-15 06:19:00,45.1,35.9,30.26,North,355,0.0,3.0,70,0.00,,,0.00,Wunderground v.1.15,2013-02-15 14:19:00,
2013-02-15 06:24:00,44.8,35.6,30.26,North,355,1.0,2.0,70,0.00,,,0.00,Wunderground v.1.15,2013-02-15 14:24:00,
2013-02-15 06:29:00,44.6,35.8,30.26,North,355,0.0,2.0,71,0.00,,,0.00,Wunderground v.1.15,2013-02-15 14:29:00,
2013-02-15 06:34:00,44.4,35.9,30.26,North,355,0.0,1.0,72,0.00,,,0.00,Wunderground v.1.15,2013-02-15 14:34:00,
2013-02-15 06:39:00,44.2,35.7,30.26,North,355,0.0,1.0,72,0.00,,,0.00,Wunderground v.1.15,2013-02-15 14:39:00,
2013-02-15 06:44:00,44.1,36.0,30.26,North,355,1.0,2.0,73,0.00,,,0.00,Wunderground v.1.15,2013-02-15 14:44:00,
2013-02-15 06:49:00,44.0,35.9,30.26,North,355,2.0,3.0,73,0.00,,,0.00,Wunderground v.1.15,2013-02-15 14:49:00,
2013-02-15 06:54:00,44.0,35.9,30.27,North,355,2.0,3.0,73,0.00,,,0.00,Wunderground v.1.15,2013-02-15 14:54:00,
2013-02-15 06:59:00,43.9,35.8,30.27,North,355,1.0,3.0,73,0.00,,,0.00,Wunderground v.1.15,2013-02-15 14:59:00,
2013-02-15 07:04:00,43.9,35.8,30.27,North,355,0.0,2.0,73,0.00,,,0.00,Wunderground v.1.15,2013-02-15 15:04:00,
2013-02-15 07:09:00,43.9,35.8,30.27,North,355,0.0,2.0,73,0.00,,,0.00,Wunderground v.1.15,2013-02-15 15:09:00,
2013-02-15 07:14:00,43.8,36.0,30.27,North,355,0.0,0.0,74,0.00,,,0.00,Wunderground v.1.15,2013-02-15 15:14:00,
2013-02-15 07:19:00,43.8,36.0,30.27,North,355,1.0,2.0,74,0.00,,,0.00,Wunderground v.1.15,2013-02-15 15:19:00,
2013-02-15 07:24:00,43.8,36.0,30.27,North,355,1.0,1.0,74,0.00,,,0.00,Wunderground v.1.15,2013-02-15 15:24:00,
2013-02-15 07:29:00,44.1,36.0,30.28,North,355,1.0,2.0,73,0.00,,,0.00,Wunderground v.1.15,2013-02-15 15:29:00,
2013-02-15 07:34:00,44.3,36.2,30.28,North,355,0.0,2.0,73,0.00,,,0.00,Wunderground v.1.15,2013-02-15 15:34:00,
2013-02-15 07:39:00,44.7,36.6,30.28,North,355,1.0,2.0,73,0.00,,,0.00,Wunderground v.1.15,2013-02-15 15:39:00,
2013-02-15 07:45:00,45.2,36.7,30.28,North,355,2.0,2.0,72,0.00,,,0.00,Wunderground v.1.15,2013-02-15 15:45:00,
2013-02-15 07:50:00,45.8,36.9,30.28,North,355,1.0,1.0,71,0.00,,,0.00,Wunderground v.1.15,2013-02-15 15:50:00,
2013-02-15 07:55:00,46.6,37.0,30.28,North,355,4.0,4.0,69,0.00,,,0.00,Wunderground v.1.15,2013-02-15 15:55:00,
2013-02-15 08:00:00,47.3,36.9,30.28,North,355,3.0,3.0,67,0.00,,,0.00,Wunderground v.1.15,2013-02-15 16:00:00,
2013-02-15 08:05:00,48.1,36.9,30.28,North,355,0.0,3.0,65,0.00,,,0.00,Wunderground v.1.15,2013-02-15 16:05:00,
2013-02-15 08:10:00,48.8,37.2,30.29,North,355,2.0,2.0,64,0.00,,,0.00,Wunderground v.1.15,2013-02-15 16:10:00,
2013-02-15 08:15:00,49.4,36.9,30.29,North,355,3.0,5.0,62,0.00,,,0.00,Wunderground v.1.15,2013-02-15 16:15:00,
2013-02-15 08:20:00,50.0,37.1,30.29,NNW,348,3.0,4.0,61,0.00,,,0.00,Wunderground v.1.15,2013-02-15 16:20:00,
2013-02-15 08:25:00,50.4,37.4,30.29,NNW,348,2.0,4.0,61,0.00,,,0.00,Wunderground v.1.15,2013-02-15 16:25:00,
2013-02-15 08:30:00,50.9,37.5,30.29,NNW,348,3.0,4.0,60,0.00,,,0.00,Wunderground v.1.15,2013-02-15 16:30:00,
2013-02-15 08:35:00,51.2,37.8,30.29,North,350,2.0,6.0,60,0.00,,,0.00,Wunderground v.1.15,2013-02-15 16:35:00,
2013-02-15 08:40:00,51.5,38.1,30.29,North,350,4.0,6.0,60,0.00,,,0.00,Wunderground v.1.15,2013-02-15 16:40:00,
2013-02-15 08:45:00,51.9,38.4,30.29,NNW,348,3.0,6.0,60,0.00,,,0.00,Wunderground v.1.15,2013-02-15 16:45:00,
2013-02-15 08:50:00,52.4,38.9,30.29,North,349,1.0,3.0,60,0.00,,,0.00,Wunderground v.1.15,2013-02-15 16:50:00,
2013-02-15 08:55:00,52.7,38.3,30.29,North,355,3.0,5.0,58,0.00,,,0.00,Wunderground v.1.15,2013-02-15 16:55:00,
2013-02-15 09:00:00,53.0,38.6,30.29,North,355,3.0,3.0,58,0.00,,,0.00,Wunderground v.1.15,2013-02-15 17:00:00,
2013-02-15 09:05:00,53.5,38.6,30.29,North,5,3.0,6.0,57,0.00,,,0.00,Wunderground v.1.15,2013-02-15 17:05:00,
2013-02-15 09:10:00,53.8,38.5,30.30,NNE,20,4.0,5.0,56,0.00,,,0.00,Wunderground v.1.15,2013-02-15 17:10:00,
2013-02-15 09:15:00,54.3,38.9,30.30,North,9,4.0,5.0,56,0.00,,,0.00,Wunderground v.1.15,2013-02-15 17:15:00,
2013-02-15 09:20:00,54.5,39.6,30.30,NNE,21,3.0,6.0,57,0.00,,,0.00,Wunderground v.1.15,2013-02-15 17:20:00,
2013-02-15 09:25:00,54.9,39.9,30.30,NNE,24,5.0,9.0,57,0.00,,,0.00,Wunderground v.1.15,2013-02-15 17:25:00,
2013-02-15 09:30:00,55.3,40.3,30.30,NNE,32,4.0,6.0,57,0.00,,,0.00,Wunderground v.1.15,2013-02-15 17:30:00,
2013-02-15 09:35:00,56.0,39.6,30.29,NNE,21,6.0,9.0,54,0.00,,,0.00,Wunderground v.1.15,2013-02-15 17:35:00,
2013-02-15 09:40:00,56.2,39.8,30.29,NNW,341,4.0,6.0,54,0.00,,,0.00,Wunderground v.1.15,2013-02-15 17:40:00,
2013-02-15 09:45:00,56.7,39.7,30.29,North,9,4.0,12.0,53,0.00,,,0.00,Wunderground v.1.15,2013-02-15 17:45:00,
2013-02-15 09:50:00,57.1,39.6,30.29,North,11,6.0,8.0,52,0.00,,,0.00,Wunderground v.1.15,2013-02-15 17:50:00,
2013-02-15 09:55:00,57.6,40.6,30.29,NNE,17,8.0,9.0,53,0.00,,,0.00,Wunderground v.1.15,2013-02-15 17:55:00,
2013-02-15 10:00:00,58.0,40.0,30.30,NNE,13,8.0,8.0,51,0.00,,,0.00,Wunderground v.1.15,2013-02-15 18:00:00,
2013-02-15 10:05:00,58.6,40.0,30.30,NE,45,6.0,8.0,50,0.00,,,0.00,Wunderground v.1.15,2013-02-15 18:05:00,
2013-02-15 10:10:00,59.0,39.3,30.30,NNE,15,5.0,10.0,48,0.00,,,0.00,Wunderground v.1.15,2013-02-15 18:10:00,
2013-02-15 10:15:00,59.6,39.3,30.30,NNE,32,8.0,10.0,47,0.00,,,0.00,Wunderground v.1.15,2013-02-15 18:15:00,
2013-02-15 10:20:00,59.9,39.1,30.30,NE,34,7.0,9.0,46,0.00,,,0.00,Wunderground v.1.15,2013-02-15 18:20:00,
2013-02-15 10:25:00,60.2,39.3,30.30,NNE,30,7.0,9.0,46,0.00,,,0.00,Wunderground v.1.15,2013-02-15 18:25:00,
2013-02-15 10:31:00,60.4,38.9,30.30,NNE,24,8.0,12.0,45,0.00,,,0.00,Wunderground v.1.15,2013-02-15 18:31:00,
2013-02-15 10:36:00,60.9,38.8,30.30,NNE,30,7.0,12.0,44,0.00,,,0.00,Wunderground v.1.15,2013-02-15 18:36:00,
2013-02-15 10:41:00,61.8,39.1,30.30,NNE,26,6.0,8.0,43,0.00,,,0.00,Wunderground v.1.15,2013-02-15 18:41:00,
2013-02-15 10:46:00,62.1,39.3,30.30,NE,46,5.0,11.0,43,0.00,,,0.00,Wunderground v.1.15,2013-02-15 18:46:00,
2013-02-15 10:51:00,62.2,38.8,30.30,NNE,31,3.0,13.0,42,0.00,,,0.00,Wunderground v.1.15,2013-02-15 18:51:00,
2013-02-15 10:56:00,62.3,39.5,30.30,North,360,4.0,13.0,43,0.00,,,0.00,Wunderground v.1.15,2013-02-15 18:56:00,
2013-02-15 11:01:00,62.7,39.3,30.30,NNE,14,3.0,10.0,42,0.00,,,0.00,Wunderground v.1.15,2013-02-15 19:01:00,
2013-02-15 11:06:00,62.9,39.4,30.30,NNE,13,8.0,11.0,42,0.00,,,0.00,Wunderground v.1.15,2013-02-15 19:06:00,
2013-02-15 11:11:00,63.2,39.1,30.30,NNE,29,7.0,11.0,41,0.00,,,0.00,Wunderground v.1.15,2013-02-15 19:11:00,
2013-02-15 11:16:00,63.4,38.6,30.30,NNW,338,3.0,11.0,40,0.00,,,0.00,Wunderground v.1.15,2013-02-15 19:16:00,
2013-02-15 11:21:00,63.8,39.6,30.30,NE,42,8.0,11.0,41,0.00,,,0.00,Wunderground v.1.15,2013-02-15 19:21:00,
2013-02-15 11:26:00,63.9,39.7,30.30,NE,36,6.0,12.0,41,0.00,,,0.00,Wunderground v.1.15,2013-02-15 19:26:00,
2013-02-15 11:31:00,63.9,38.4,30.30,NE,38,9.0,12.0,39,0.00,,,0.00,Wunderground v.1.15,2013-02-15 19:31:00,
2013-02-15 11:36:00,64.3,40.1,30.30,NNE,12,2.0,12.0,41,0.00,,,0.00,Wunderground v.1.15,2013-02-15 19:36:00,
2013-02-15 11:41:00,64.5,39.6,30.30,NE,43,4.0,10.0,40,0.00,,,0.00,Wunderground v.1.15,2013-02-15 19:41:00,
2013-02-15 11:46:00,64.5,39.0,30.29,North,5,8.0,11.0,39,0.00,,,0.00,Wunderground v.1.15,2013-02-15 19:46:00,
2013-02-15 11:51:00,65.0,40.7,30.29,North,355,8.0,8.0,41,0.00,,,0.00,Wunderground v.1.15,2013-02-15 19:51:00,
2013-02-15 11:56:00,65.0,40.1,30.29,North,11,4.0,10.0,40,0.00,,,0.00,Wunderground v.1.15,2013-02-15 19:56:00,
2013-02-15 12:01:00,64.9,40.0,30.29,NNE,13,9.0,11.0,40,0.00,,,0.00,Wunderground v.1.15,2013-02-15 20:01:00,
2013-02-15 12:06:00,65.3,41.6,30.29,NNE,26,6.0,11.0,42,0.00,,,0.00,Wunderground v.1.15,2013-02-15 20:06:00,
2013-02-15 12:11:00,65.4,39.8,30.29,NNE,19,5.0,10.0,39,0.00,,,0.00,Wunderground v.1.15,2013-02-15 20:11:00,
2013-02-15 12:17:00,65.4,40.4,30.29,NNE,26,6.0,10.0,40,0.00,,,0.00,Wunderground v.1.15,2013-02-15 20:17:00,
2013-02-15 12:22:00,65.7,42.0,30.28,NNE,30,3.0,7.0,42,0.00,,,0.00,Wunderground v.1.15,2013-02-15 20:22:00,
2013-02-15 12:27:00,65.9,42.8,30.28,NE,47,4.0,8.0,43,0.00,,,0.00,Wunderground v.1.15,2013-02-15 20:27:00,
2013-02-15 12:32:00,65.8,42.1,30.28,North,5,6.0,6.0,42,0.00,,,0.00,Wunderground v.1.15,2013-02-15 20:32:00,
2013-02-15 12:37:00,66.0,42.2,30.28,NNE,21,3.0,8.0,42,0.00,,,0.00,Wunderground v.1.15,2013-02-15 20:37:00,
2013-02-15 12:42:00,66.4,41.3,30.28,NE,34,2.0,7.0,40,0.00,,,0.00,Wunderground v.1.15,2013-02-15 20:42:00,
2013-02-15 12:47:00,66.4,40.0,30.27,NNE,17,7.0,10.0,38,0.00,,,0.00,Wunderground v.1.15,2013-02-15 20:47:00,
2013-02-15 12:52:00,66.5,40.8,30.27,NE,53,5.0,6.0,39,0.00,,,0.00,Wunderground v.1.15,2013-02-15 20:52:00,
2013-02-15 12:57:00,66.8,41.0,30.27,North,360,6.0,8.0,39,0.00,,,0.00,Wunderground v.1.15,2013-02-15 20:57:00,
2013-02-15 13:02:00,67.1,40.6,30.27,NNW,340,7.0,7.0,38,0.00,,,0.00,Wunderground v.1.15,2013-02-15 21:02:00,
2013-02-15 13:07:00,67.4,40.9,30.27,North,5,3.0,7.0,38,0.00,,,0.00,Wunderground v.1.15,2013-02-15 21:07:00,
2013-02-15 13:12:00,67.7,40.5,30.26,North,5,4.0,8.0,37,0.00,,,0.00,Wunderground v.1.15,2013-02-15 21:12:00,
2013-02-15 13:17:00,67.7,41.2,30.26,NNE,31,5.0,10.0,38,0.00,,,0.00,Wunderground v.1.15,2013-02-15 21:17:00,
2013-02-15 13:22:00,67.5,40.3,30.26,NNE,28,5.0,6.0,37,0.00,,,0.00,Wunderground v.1.15,2013-02-15 21:22:00,
2013-02-15 13:27:00,67.8,39.9,30.26,NNW,344,1.0,10.0,36,0.00,,,0.00,Wunderground v.1.15,2013-02-15 21:27:00,
2013-02-15 13:32:00,68.1,39.4,30.25,North,5,2.0,7.0,35,0.00,,,0.00,Wunderground v.1.15,2013-02-15 21:32:00,
2013-02-15 13:37:00,68.4,39.7,30.25,North,350,2.0,9.0,35,0.00,,,0.00,Wunderground v.1.15,2013-02-15 21:37:00,
2013-02-15 13:42:00,68.5,39.0,30.25,NNW,340,2.0,13.0,34,0.00,,,0.00,Wunderground v.1.15,2013-02-15 21:42:00,
2013-02-15 13:47:00,68.5,39.8,30.25,North,360,2.0,13.0,35,0.00,,,0.00,Wunderground v.1.15,2013-02-15 21:47:00,
2013-02-15 13:52:00,68.6,40.6,30.25,NNE,33,6.0,9.0,36,0.00,,,0.00,Wunderground v.1.15,2013-02-15 21:52:00,
2013-02-15 13:57:00,68.8,38.5,30.25,NW,326,7.0,10.0,33,0.00,,,0.00,Wunderground v.1.15,2013-02-15 21:57:00,
2013-02-15 14:02:00,69.0,39.4,30.25,NE,39,7.0,8.0,34,0.00,,,0.00,Wunderground v.1.15,2013-02-15 22:02:00,
2013-02-15 14:07:00,69.1,39.5,30.25,North,355,5.0,8.0,34,0.00,,,0.00,Wunderground v.1.15,2013-02-15 22:07:00,
2013-02-15 14:12:00,69.4,40.5,30.25,NE,38,7.0,7.0,35,0.00,,,0.00,Wunderground v.1.15,2013-02-15 22:12:00,
2013-02-15 14:17:00,69.2,39.6,30.25,NE,46,8.0,10.0,34,0.00,,,0.00,Wunderground v.1.15,2013-02-15 22:17:00,
2013-02-15 14:22:00,69.2,38.9,30.24,NE,36,5.0,6.0,33,0.00,,,0.00,Wunderground v.1.15,2013-02-15 22:22:00,
2013-02-15 14:27:00,69.4,39.0,30.25,NNE,13,5.0,8.0,33,0.00,,,0.00,Wunderground v.1.15,2013-02-15 22:27:00,
2013-02-15 14:33:00,69.2,39.6,30.24,NE,53,7.0,8.0,34,0.00,,,0.00,Wunderground v.1.15,2013-02-15 22:33:00,
2013-02-15 14:38:00,69.7,39.3,30.24,North,5,2.0,9.0,33,0.00,,,0.00,Wunderground v.1.15,2013-02-15 22:38:00,
2013-02-15 14:43:00,70.1,39.6,30.24,NE,34,5.0,5.0,33,0.00,,,0.00,Wunderground v.1.15,2013-02-15 22:43:00,
2013-02-15 14:48:00,70.2,41.3,30.24,NE,55,3.0,7.0,35,0.00,,,0.00,Wunderground v.1.15,2013-02-15 22:48:00,
2013-02-15 14:53:00,70.2,40.5,30.24,NE,41,2.0,7.0,34,0.00,,,0.00,Wunderground v.1.15,2013-02-15 22:53:00,
2013-02-15 14:58:00,69.8,40.2,30.24,NE,46,4.0,7.0,34,0.00,,,0.00,Wunderground v.1.15,2013-02-15 22:58:00,
2013-02-15 15:03:00,70.0,40.3,30.24,NE,37,1.0,5.0,34,0.00,,,0.00,Wunderground v.1.15,2013-02-15 23:03:00,
2013-02-15 15:08:00,70.3,39.0,30.24,NE,38,4.0,5.0,32,0.00,,,0.00,Wunderground v.1.15,2013-02-15 23:08:00,
2013-02-15 15:13:00,70.0,39.6,30.24,NE,46,6.0,7.0,33,0.00,,,0.00,Wunderground v.1.15,2013-02-15 23:13:00,
2013-02-15 15:18:00,69.9,39.5,30.24,ENE,57,4.0,7.0,33,0.00,,,0.00,Wunderground v.1.15,2013-02-15 23:18:00,
2013-02-15 15:23:00,69.9,40.2,30.24,NE,46,4.0,8.0,34,0.00,,,0.00,Wunderground v.1.15,2013-02-15 23:23:00,
2013-02-15 15:28:00,70.0,39.6,30.24,NE,46,4.0,8.0,33,0.00,,,0.00,Wunderground v.1.15,2013-02-15 23:28:00,
2013-02-15 15:33:00,69.9,38.7,30.24,NNE,15,6.0,7.0,32,0.00,,,0.00,Wunderground v.1.15,2013-02-15 23:33:00,
2013-02-15 15:38:00,70.0,39.6,30.24,NNE,20,4.0,8.0,33,0.00,,,0.00,Wunderground v.1.15,2013-02-15 23:38:00,
2013-02-15 15:43:00,70.0,40.3,30.24,NE,44,4.0,5.0,34,0.00,,,0.00,Wunderground v.1.15,2013-02-15 23:43:00,
2013-02-15 15:48:00,70.0,38.0,30.23,NNE,28,4.0,8.0,31,0.00,,,0.00,Wunderground v.1.15,2013-02-15 23:48:00,
2013-02-15 15:53:00,70.0,38.8,30.23,NE,41,2.0,6.0,32,0.00,,,0.00,Wunderground v.1.15,2013-02-15 23:53:00,
2013-02-15 15:58:00,70.0,38.8,30.23,NE,41,1.0,6.0,32,0.00,,,0.00,Wunderground v.1.15,2013-02-15 23:58:00,
2013-02-15 16:03:00,70.1,38.9,30.23,North,10,2.0,3.0,32,0.00,,,0.00,Wunderground v.1.15,2013-02-16 00:03:00,
2013-02-15 16:08:00,70.2,38.9,30.23,NNW,348,3.0,5.0,32,0.00,,,0.00,Wunderground v.1.15,2013-02-16 00:08:00,
2013-02-15 16:13:00,70.0,39.6,30.23,North,355,0.0,3.0,33,0.00,,,0.00,Wunderground v.1.15,2013-02-16 00:13:00,
2013-02-15 16:18:00,69.8,40.9,30.23,NE,38,2.0,5.0,35,0.00,,,0.00,Wunderground v.1.15,2013-02-16 00:18:00,
2013-02-15 16:23:00,69.7,40.8,30.23,NE,38,3.0,3.0,35,0.00,,,0.00,Wunderground v.1.15,2013-02-16 00:23:00,
2013-02-15 16:28:00,69.7,40.1,30.23,NE,38,2.0,4.0,34,0.00,,,0.00,Wunderground v.1.15,2013-02-16 00:28:00,
2013-02-15 16:33:00,69.6,40.0,30.23,NE,38,2.0,4.0,34,0.00,,,0.00,Wunderground v.1.15,2013-02-16 00:33:00,
2013-02-15 16:38:00,69.4,42.0,30.23,NE,38,3.0,5.0,37,0.00,,,0.00,Wunderground v.1.15,2013-02-16 00:38:00,
2013-02-15 16:43:00,69.3,40.5,30.23,NE,38,2.0,3.0,35,0.00,,,0.00,Wunderground v.1.15,2013-02-16 00:43:00,
2013-02-15 16:48:00,69.1,41.0,30.22,NE,38,2.0,3.0,36,0.00,,,0.00,Wunderground v.1.15,2013-02-16 00:48:00,
2013-02-15 16:53:00,68.9,40.8,30.23,NE,38,2.0,4.0,36,0.00,,,0.00,Wunderground v.1.15,2013-02-16 00:53:00,
2013-02-15 16:58:00,68.7,41.4,30.22,NE,38,2.0,4.0,37,0.00,,,0.00,Wunderground v.1.15,2013-02-16 00:58:00,
2013-02-15 17:03:00,68.4,41.1,30.23,NE,38,2.0,2.0,37,0.00,,,0.00,Wunderground v.1.15,2013-02-16 01:03:00,
2013-02-15 17:08:00,68.3,41.0,30.22,NE,38,0.0,2.0,37,0.00,,,0.00,Wunderground v.1.15,2013-02-16 01:08:00,
2013-02-15 17:13:00,68.2,41.6,30.22,NE,38,0.0,3.0,38,0.00,,,0.00,Wunderground v.1.15,2013-02-16 01:13:00,
2013-02-15 17:18:00,67.9,45.2,30.23,NE,38,2.0,3.0,44,0.00,,,0.00,Wunderground v.1.15,2013-02-16 01:18:00,
2013-02-15 17:23:00,67.6,47.2,30.23,NE,38,1.0,3.0,48,0.00,,,0.00,Wunderground v.1.15,2013-02-16 01:23:00,
2013-02-15 17:28:00,67.2,47.9,30.23,NE,38,2.0,3.0,50,0.00,,,0.00,Wunderground v.1.15,2013-02-16 01:28:00,
2013-02-15 17:33:00,66.8,48.1,30.23,NE,38,1.0,3.0,51,0.00,,,0.00,Wunderground v.1.15,2013-02-16 01:33:00,
2013-02-15 17:38:00,66.5,48.3,30.23,NE,38,1.0,3.0,52,0.00,,,0.00,Wunderground v.1.15,2013-02-16 01:38:00,
2013-02-15 17:43:00,66.1,48.0,30.23,NE,38,0.0,3.0,52,0.00,,,0.00,Wunderground v.1.15,2013-02-16 01:43:00,
2013-02-15 17:48:00,65.8,47.7,30.23,NE,38,1.0,3.0,52,0.00,,,0.00,Wunderground v.1.15,2013-02-16 01:48:00,
2013-02-15 17:54:00,65.5,47.4,30.23,NE,38,2.0,2.0,52,0.00,,,0.00,Wunderground v.1.15,2013-02-16 01:54:00,
2013-02-15 17:59:00,65.2,47.1,30.23,NE,38,0.0,2.0,52,0.00,,,0.00,Wunderground v.1.15,2013-02-16 01:59:00,
2013-02-15 18:04:00,64.9,46.8,30.23,NE,38,0.0,0.0,52,0.00,,,0.00,Wunderground v.1.15,2013-02-16 02:04:00,
2013-02-15 18:09:00,64.6,47.1,30.23,NE,38,0.0,0.0,53,0.00,,,0.00,Wunderground v.1.15,2013-02-16 02:09:00,
2013-02-15 18:14:00,64.3,47.3,30.23,NE,38,0.0,1.0,54,0.00,,,0.00,Wunderground v.1.15,2013-02-16 02:14:00,
2013-02-15 18:19:00,64.0,47.0,30.24,NE,38,0.0,1.0,54,0.00,,,0.00,Wunderground v.1.15,2013-02-16 02:19:00,
2013-02-15 18:24:00,63.8,46.8,30.24,NE,38,0.0,0.0,54,0.00,,,0.00,Wunderground v.1.15,2013-02-16 02:24:00,
2013-02-15 18:29:00,63.5,47.0,30.24,NE,38,0.0,0.0,55,0.00,,,0.00,Wunderground v.1.15,2013-02-16 02:29:00,
2013-02-15 18:34:00,63.1,46.7,30.24,NE,38,0.0,0.0,55,0.00,,,0.00,Wunderground v.1.15,2013-02-16 02:34:00,
2013-02-15 18:39:00,62.8,46.4,30.24,NE,38,1.0,1.0,55,0.00,,,0.00,Wunderground v.1.15,2013-02-16 02:39:00,
2013-02-15 18:44:00,62.3,46.4,30.24,NE,38,0.0,3.0,56,0.00,,,0.00,Wunderground v.1.15,2013-02-16 02:44:00,
2013-02-15 18:49:00,62.0,46.6,30.24,NE,38,1.0,3.0,57,0.00,,,0.00,Wunderground v.1.15,2013-02-16 02:49:00,
2013-02-15 18:54:00,61.5,46.6,30.24,NE,38,0.0,2.0,58,0.00,,,0.00,Wunderground v.1.15,2013-02-16 02:54:00,
2013-02-15 18:59:00,61.1,46.2,30.24,NE,38,1.0,2.0,58,0.00,,,0.00,Wunderground v.1.15,2013-02-16 02:59:00,
2013-02-15 19:04:00,60.8,45.9,30.24,NE,38,1.0,1.0,58,0.00,,,0.00,Wunderground v.1.15,2013-02-16 03:04:00,
2013-02-15 19:09:00,60.5,45.2,30.24,NE,38,1.0,1.0,57,0.00,,,0.00,Wunderground v.1.15,2013-02-16 03:09:00,
2013-02-15 19:14:00,60.0,45.2,30.24,NE,38,1.0,2.0,58,0.00,,,0.00,Wunderground v.1.15,2013-02-16 03:14:00,
2013-02-15 19:19:00,59.6,44.8,30.24,NE,38,2.0,2.0,58,0.00,,,0.00,Wunderground v.1.15,2013-02-16 03:19:00,
2013-02-15 19:24:00,59.1,43.9,30.24,NE,38,1.0,2.0,57,0.00,,,0.00,Wunderground v.1.15,2013-02-16 03:24:00,
2013-02-15 19:29:00,58.8,43.1,30.24,NE,38,1.0,2.0,56,0.00,,,0.00,Wunderground v.1.15,2013-02-16 03:29:00,
2013-02-15 19:34:00,58.5,42.8,30.24,NE,38,0.0,2.0,56,0.00,,,0.00,Wunderground v.1.15,2013-02-16 03:34:00,
2013-02-15 19:39:00,58.3,43.1,30.24,NE,38,2.0,2.0,57,0.00,,,0.00,Wunderground v.1.15,2013-02-16 03:39:00,
2013-02-15 19:44:00,58.0,42.4,30.24,NE,38,1.0,2.0,56,0.00,,,0.00,Wunderground v.1.15,2013-02-16 03:44:00,
2013-02-15 19:49:00,57.7,42.1,30.24,NE,38,1.0,2.0,56,0.00,,,0.00,Wunderground v.1.15,2013-02-16 03:49:00,
2013-02-15 19:54:00,57.4,41.8,30.24,NE,38,0.0,1.0,56,0.00,,,0.00,Wunderground v.1.15,2013-02-16 03:54:00,
2013-02-15 19:59:00,57.1,41.5,30.24,NE,38,1.0,2.0,56,0.00,,,0.00,Wunderground v.1.15,2013-02-16 03:59:00,
2013-02-15 20:04:00,56.8,41.7,30.24,NE,38,0.0,3.0,57,0.00,,,0.00,Wunderground v.1.15,2013-02-16 04:04:00,
2013-02-15 20:09:00,56.5,41.4,30.24,NE,38,0.0,3.0,57,0.00,,,0.00,Wunderground v.1.15,2013-02-16 04:09:00,
2013-02-15 20:14:00,56.3,41.3,30.24,NE,38,2.0,2.0,57,0.00,,,0.00,Wunderground v.1.15,2013-02-16 04:14:00,
2013-02-15 20:19:00,56.0,41.0,30.24,NE,38,2.0,3.0,57,0.00,,,0.00,Wunderground v.1.15,2013-02-16 04:19:00,
2013-02-15 20:24:00,55.7,40.7,30.25,NE,38,1.0,2.0,57,0.00,,,0.00,Wunderground v.1.15,2013-02-16 04:24:00,
2013-02-15 20:29:00,55.4,40.9,30.25,NE,38,2.0,3.0,58,0.00,,,0.00,Wunderground v.1.15,2013-02-16 04:29:00,
2013-02-15 20:34:00,55.2,40.7,30.25,NE,38,2.0,3.0,58,0.00,,,0.00,Wunderground v.1.15,2013-02-16 04:34:00,
2013-02-15 20:39:00,55.0,40.9,30.25,NE,38,1.0,3.0,59,0.00,,,0.00,Wunderground v.1.15,2013-02-16 04:39:00,
2013-02-15 20:45:00,54.7,40.6,30.25,NE,38,1.0,2.0,59,0.00,,,0.00,Wunderground v.1.15,2013-02-16 04:45:00,
2013-02-15 20:50:00,54.6,40.6,30.25,NE,38,1.0,1.0,59,0.00,,,0.00,Wunderground v.1.15,2013-02-16 04:50:00,
2013-02-15 20:55:00,54.5,40.5,30.25,NE,38,0.0,1.0,59,0.00,,,0.00,Wunderground v.1.15,2013-02-16 04:55:00,
2013-02-15 21:00:00,54.3,40.3,30.25,NE,38,0.0,1.0,59,0.00,,,0.00,Wunderground v.1.15,2013-02-16 05:00:00,
2013-02-15 21:05:00,54.1,40.1,30.25,NE,38,1.0,3.0,59,0.00,,,0.00,Wunderground v.1.15,2013-02-16 05:05:00,
2013-02-15 21:10:00,53.9,39.9,30.25,NE,38,1.0,2.0,59,0.00,,,0.00,Wunderground v.1.15,2013-02-16 05:10:00,
2013-02-15 21:15:00,53.8,39.8,30.25,NE,38,1.0,2.0,59,0.00,,,0.00,Wunderground v.1.15,2013-02-16 05:15:00,
2013-02-15 21:20:00,53.7,39.7,30.25,NE,38,0.0,1.0,59,0.00,,,0.00,Wunderground v.1.15,2013-02-16 05:20:00,
2013-02-15 21:23:00,53.6,39.6,30.26,NE,38,0.0,1.0,59,0.00,,,0.00,Wunderground v.1.15,2013-02-16 05:23:00,
2013-02-15 21:28:00,53.5,39.5,30.25,NE,38,0.0,1.0,59,0.00,,,0.00,Wunderground v.1.15,2013-02-16 05:28:00,
2013-02-15 21:33:00,53.4,39.9,30.25,NE,38,0.0,1.0,60,0.00,,,0.00,Wunderground v.1.15,2013-02-16 05:33:00,
2013-02-15 21:38:00,53.3,39.8,30.25,NE,38,0.0,1.0,60,0.00,,,0.00,Wunderground v.1.15,2013-02-16 05:38:00,
2013-02-15 21:43:00,53.1,39.6,30.25,NE,38,0.0,1.0,60,0.00,,,0.00,Wunderground v.1.15,2013-02-16 05:43:00,
2013-02-15 21:48:00,53.0,39.5,30.25,NE,38,0.0,1.0,60,0.00,,,0.00,Wunderground v.1.15,2013-02-16 05:48:00,
2013-02-15 21:53:00,52.8,39.3,30.26,NE,38,1.0,2.0,60,0.00,,,0.00,Wunderground v.1.15,2013-02-16 05:53:00,
2013-02-15 21:58:00,52.6,39.5,30.26,NE,38,2.0,2.0,61,0.00,,,0.00,Wunderground v.1.15,2013-02-16 05:58:00,
2013-02-15 22:03:00,52.4,39.3,30.26,NE,38,0.0,2.0,61,0.00,,,0.00,Wunderground v.1.15,2013-02-16 06:03:00,
2013-02-15 22:08:00,52.3,38.8,30.26,NE,38,0.0,3.0,60,0.00,,,0.00,Wunderground v.1.15,2013-02-16 06:08:00,
2013-02-15 22:13:00,52.2,38.7,30.26,NE,38,0.0,2.0,60,0.00,,,0.00,Wunderground v.1.15,2013-02-16 06:13:00,
2013-02-15 22:18:00,52.2,38.7,30.26,NE,38,0.0,2.0,60,0.00,,,0.00,Wunderground v.1.15,2013-02-16 06:18:00,
2013-02-15 22:23:00,52.1,39.1,30.26,NE,38,0.0,1.0,61,0.00,,,0.00,Wunderground v.1.15,2013-02-16 06:23:00,
2013-02-15 22:28:00,51.9,38.9,30.25,NE,38,1.0,3.0,61,0.00,,,0.00,Wunderground v.1.15,2013-02-16 06:28:00,
2013-02-15 22:33:00,51.8,38.8,30.25,NE,38,0.0,2.0,61,0.00,,,0.00,Wunderground v.1.15,2013-02-16 06:33:00,
2013-02-15 22:38:00,51.7,38.7,30.26,NE,38,0.0,2.0,61,0.00,,,0.00,Wunderground v.1.15,2013-02-16 06:38:00,
2013-02-15 22:43:00,51.5,38.5,30.26,NE,38,0.0,1.0,61,0.00,,,0.00,Wunderground v.1.15,2013-02-16 06:43:00,
2013-02-15 22:48:00,51.5,38.1,30.26,NE,38,1.0,3.0,60,0.00,,,0.00,Wunderground v.1.15,2013-02-16 06:48:00,
2013-02-15 22:53:00,51.4,38.4,30.26,NE,38,0.0,2.0,61,0.00,,,0.00,Wunderground v.1.15,2013-02-16 06:53:00,
2013-02-15 22:58:00,51.4,38.4,30.26,NE,38,1.0,2.0,61,0.00,,,0.00,Wunderground v.1.15,2013-02-16 06:58:00,
2013-02-15 23:03:00,51.4,38.4,30.26,NE,38,1.0,2.0,61,0.00,,,0.00,Wunderground v.1.15,2013-02-16 07:03:00,
2013-02-15 23:09:00,51.3,37.9,30.26,NE,38,0.0,2.0,60,0.00,,,0.00,Wunderground v.1.15,2013-02-16 07:09:00,
2013-02-15 23:14:00,51.2,37.8,30.26,NE,38,1.0,2.0,60,0.00,,,0.00,Wunderground v.1.15,2013-02-16 07:14:00,
2013-02-15 23:18:00,51.2,38.2,30.26,NE,38,1.0,2.0,61,0.00,,,0.00,Wunderground v.1.15,2013-02-16 07:18:00,
2013-02-15 23:23:00,51.2,38.2,30.25,NE,38,1.0,3.0,61,0.00,,,0.00,Wunderground v.1.15,2013-02-16 07:23:00,
2013-02-15 23:28:00,51.1,38.1,30.25,NE,38,0.0,3.0,61,0.00,,,0.00,Wunderground v.1.15,2013-02-16 07:28:00,
2013-02-15 23:33:00,51.1,38.1,30.25,NE,38,0.0,1.0,61,0.00,,,0.00,Wunderground v.1.15,2013-02-16 07:33:00,
2013-02-15 23:38:00,51.0,38.0,30.25,NE,38,0.0,1.0,61,0.00,,,0.00,Wunderground v.1.15,2013-02-16 07:38:00,
2013-02-15 23:44:00,50.9,37.9,30.25,NE,38,0.0,1.0,61,0.00,,,0.00,Wunderground v.1.15,2013-02-16 07:44:00,
2013-02-15 23:49:00,50.8,37.8,30.25,NE,38,0.0,1.0,61,0.00,,,0.00,Wunderground v.1.15,2013-02-16 07:49:00,
2013-02-15 23:54:00,50.7,37.7,30.25,NE,38,0.0,0.0,61,0.00,,,0.00,Wunderground v.1.15,2013-02-16 07:54:00,
2013-02-15 23:59:00,50.6,37.6,30.25,NE,38,0.0,0.0,61,0.00,,,0.00,Wunderground v.1.15,2013-02-16 07:59:00,